EW3247 Weather Reports


time (UTC)temp
F
wind
direction
speed
knots
gust
knots
rain 1hr
in
rain 24hr
in
rain mn
in
humidity
%
barometer
mb
20260507085025 52 0.0 0.0 0.00 0.31 0.12 96 1011.2
20260507084019 52 0.0 0.0 0.00 0.31 0.12 96 1011.2
20260507083027 52 0.0 0.0 0.00 0.31 0.12 96 1010.9
20260507082019 52 0.0 0.0 0.00 0.31 0.12 95 1010.9
20260507081027 52 0.0 0.0 0.00 0.31 0.12 95 1010.6
20260507080034 52 55 0.0 0.9 0.00 0.31 0.12 95 1010.7
20260507075046 52 0.0 0.0 0.00 0.31 0.12 95 1010.5
20260507074018 52 345 0.0 0.9 0.00 0.31 0.12 94 1010.4
20260507073046 52 137 0.0 0.9 0.00 0.31 0.12 94 1010.6
20260507072037 52 25 0.0 0.9 0.00 0.31 0.12 94 1010.4
20260507071027 52 9 0.9 1.7 0.01 0.31 0.12 95 1010.5
20260507070019 53 8 0.9 0.9 0.01 0.31 0.12 96 1010.7
20260507065027 53 25 0.0 0.9 0.01 0.31 0.12 96 1010.8
20260507064019 53 340 0.0 0.9 0.01 0.31 0.12 97 1010.5
20260507063046 54 16 0.0 0.9 0.01 0.31 0.12 97 1010.3
20260507062018 54 39 0.0 0.9 0.02 0.31 0.12 97 1010.5
20260507061026 55 11 0.0 0.9 0.01 0.30 0.11 97 1010.7
20260507060017 55 28 0.0 0.9 0.02 0.30 0.11 97 1010.4
20260507055026 55 0.0 0.0 0.05 0.30 0.11 96 1010.8
20260507054035 55 0.0 0.0 0.11 0.30 0.11 96 1010.6
20260507053027 55 0.0 0.0 0.11 0.30 0.11 96 1011.0
20260507052019 55 0.0 0.0 0.09 0.28 0.09 95 1010.7
20260507051034 56 54 0.0 0.9 0.09 0.28 0.09 94 1010.6
20260507050040 56 7 0.0 1.7 0.08 0.27 0.08 93 1010.9
20260507045035 57 329 0.0 0.9 0.06 0.25 0.06 91 1010.9
20260507044019 58 291 0.0 1.7 0.00 0.19 0.00 87 1010.6
20260507043027 58 321 0.0 1.7 0.00 0.19 0.00 86 1010.6
20260507042019 59 338 0.9 1.7 0.00 0.19 0.00 85 1010.6
20260507041026 60 323 0.9 1.7 0.00 0.19 0.00 85 1010.4
20260507040038 61 15 0.0 0.9 0.00 0.19 0.00 86 1010.0
20260507035026 61 245 0.0 1.7 0.00 0.19 0.19 85 1009.7
20260507034018 61 75 0.0 0.9 0.00 0.19 0.19 84 1009.9
20260507033048 62 291 0.0 1.7 0.00 0.19 0.19 84 1010.2
20260507032019 62 12 0.0 0.9 0.00 0.19 0.19 83 1009.8
20260507031027 62 21 0.0 0.9 0.00 0.19 0.19 83 1009.9
20260507030019 62 296 0.0 1.7 0.00 0.19 0.19 82 1009.5
20260507025027 62 13 0.9 0.9 0.00 0.19 0.19 82 1009.6
20260507024018 63 334 0.0 0.9 0.00 0.19 0.19 83 1009.7
20260507023026 63 291 0.0 0.9 0.00 0.19 0.19 83 1009.4
20260507022018 63 257 0.9 2.6 0.00 0.19 0.19 84 1009.5
20260507021016 64 6 0.9 0.9 0.00 0.19 0.19 88 1009.5
20260507020019 65 35 0.0 0.9 0.00 0.19 0.19 87 1009.5
20260507015027 65 39 0.0 0.9 0.00 0.19 0.19 87 1009.0
20260507014019 66 171 0.0 0.9 0.00 0.19 0.19 86 1009.4
20260507013027 66 313 0.0 0.9 0.00 0.19 0.19 86 1009.5
20260507012027 66 240 0.9 2.6 0.00 0.19 0.19 85 1009.5
20260507011037 66 5 0.9 2.6 0.00 0.19 0.19 88 1009.5
20260507010018 66 0.0 0.0 0.00 0.19 0.19 88 1009.3
20260507005026 66 0.0 0.0 0.00 0.19 0.19 87 1009.1
20260507004035 67 0.0 0.0 0.00 0.19 0.19 87 1009.0
20260507003107 67 0.0 0.0 0.00 0.19 0.19 87 1009.1
20260507002019 67 73 0.0 0.9 0.00 0.19 0.19 86 1008.9
20260507001017 67 0.0 0.0 0.00 0.19 0.19 86 1008.8
20260507000019 67 0.0 0.0 0.00 0.19 0.19 86 1008.7
20260506235047 67 76 0.0 0.9 0.00 0.19 0.19 86 1008.5
20260506234034 67 84 0.0 0.9 0.00 0.19 0.19 85 1008.4
20260506233046 68 79 0.0 0.9 0.00 0.19 0.19 85 1008.4
20260506232018 68 77 0.0 1.7 0.00 0.19 0.19 84 1008.2
20260506231020 69 86 0.0 0.9 0.00 0.19 0.19 83 1008.3
20260506230054 69 42 0.0 0.9 0.00 0.19 0.19 82 1008.3
20260506225027 70 158 0.0 0.9 0.00 0.19 0.19 81 1008.1
20260506224019 69 143 0.0 0.9 0.00 0.19 0.19 82 1008.0
20260506223027 68 0.0 0.0 0.00 0.19 0.19 83 1008.1
20260506222019 68 118 0.9 1.7 0.00 0.19 0.19 83 1008.2
20260506221020 69 148 0.0 0.9 0.00 0.19 0.19 83 1008.3
20260506220018 69 69 0.0 0.9 0.00 0.19 0.19 83 1008.2
20260506215028 69 114 0.0 1.7 0.00 0.19 0.19 82 1008.2
20260506214020 70 155 0.9 0.9 0.00 0.19 0.19 81 1008.1
20260506213028 70 91 0.0 2.6 0.00 0.19 0.19 81 1007.9
20260506212019 70 124 0.9 2.6 0.00 0.19 0.19 81 1007.8
20260506211021 70 179 0.0 0.9 0.00 0.19 0.19 80 1007.8
20260506210019 70 93 0.0 1.7 0.00 0.19 0.19 80 1007.7
20260506205027 70 147 0.0 2.6 0.00 0.19 0.19 80 1007.5
20260506204018 70 111 0.9 2.6 0.00 0.19 0.19 80 1007.5
20260506203028 71 67 0.0 2.6 0.00 0.19 0.19 77 1007.7
20260506202040 71 97 0.0 0.9 0.00 0.19 0.19 77 1007.6
20260506201022 71 115 0.9 2.6 0.00 0.19 0.19 78 1007.5
20260506200020 72 110 0.9 2.6 0.00 0.19 0.19 76 1007.6
20260506195027 72 230 0.9 1.7 0.00 0.19 0.19 76 1007.6
20260506194019 71 201 0.9 3.5 0.00 0.19 0.19 77 1007.6
20260506193027 71 190 0.9 2.6 0.00 0.19 0.19 78 1007.7
20260506192019 70 180 0.9 2.6 0.00 0.19 0.19 79 1007.8
20260506191022 69 130 0.9 2.6 0.00 0.19 0.19 80 1007.9
20260506190020 69 197 0.9 3.5 0.00 0.19 0.19 80 1008.0
20260506185048 68 238 1.7 5.2 0.00 0.19 0.19 82 1008.2
20260506184020 67 114 0.9 2.6 0.00 0.19 0.19 84 1008.3
20260506183027 66 120 0.9 2.6 0.00 0.19 0.19 85 1008.3
20260506182019 66 203 0.9 2.6 0.00 0.19 0.19 85 1008.4
20260506181023 66 106 0.0 1.7 0.00 0.19 0.19 86 1008.4
20260506180019 65 149 0.9 6.1 0.00 0.19 0.19 86 1008.6
20260506175028 65 148 0.9 2.6 0.00 0.19 0.19 86 1008.6
20260506174020 65 183 0.9 2.6 0.00 0.19 0.19 86 1008.5
20260506173028 64 138 0.9 2.6 0.00 0.19 0.19 88 1008.5
20260506172020 64 159 1.7 7.8 0.00 0.19 0.19 89 1008.7
20260506171025 64 132 0.9 4.3 0.00 0.19 0.19 90 1008.6
20260506170019 63 166 1.7 3.5 0.00 0.19 0.19 91 1008.7
20260506165047 62 75 0.9 4.3 0.00 0.19 0.19 93 1008.7
20260506164019 62 136 0.9 2.6 0.00 0.19 0.19 95 1009.0
20260506163048 61 112 1.7 6.1 0.00 0.19 0.19 96 1008.9
20260506162034 61 145 0.9 3.5 0.01 0.19 0.19 96 1008.9
20260506161026 61 75 0.9 4.3 0.01 0.19 0.19 97 1009.1
20260506160020 61 83 0.9 5.2 0.01 0.19 0.19 97 1009.1
20260506155027 60 97 0.9 2.6 0.01 0.19 0.19 97 1009.1
20260506154019 60 163 1.7 5.2 0.02 0.19 0.19 97 1009.3
20260506153027 60 126 1.7 4.3 0.04 0.19 0.19 97 1009.1
20260506152018 60 119 1.7 5.2 0.04 0.18 0.18 97 1009.3
20260506151027 60 113 1.7 5.2 0.06 0.18 0.18 97 1009.6
20260506150016 60 72 0.9 2.6 0.08 0.18 0.18 97 1009.7
20260506145028 60 91 0.9 3.5 0.09 0.18 0.18 96 1009.8
20260506144100 60 151 0.9 3.5 0.11 0.17 0.17 96 1009.8
20260506143027 60 94 1.7 5.2 0.11 0.15 0.15 96 1009.6
20260506142019 60 113 0.9 5.2 0.09 0.14 0.14 95 1009.8
20260506141027 60 90 0.9 2.6 0.09 0.12 0.12 95 1009.6
20260506140017 61 92 0.9 5.2 0.07 0.09 0.09 94 1009.8
20260506135029 61 85 0.9 0.9 0.07 0.08 0.08 94 1010.0
20260506134020 61 140 0.9 2.6 0.06 0.06 0.06 93 1010.3
20260506133108 61 88 0.9 3.5 0.05 0.05 0.05 93 1010.4
20260506132020 61 106 0.9 1.7 0.05 0.05 0.05 92 1010.1
20260506131043 61 98 0.9 1.7 0.02 0.02 0.02 91 1009.9
20260506130017 62 123 0.9 2.6 0.02 0.02 0.02 90 1009.9
20260506125107 62 93 0.9 1.7 0.01 0.01 0.01 89 1009.5
20260506124021 62 103 0.9 2.6 0.00 0.00 0.00 87 1009.7
20260506123048 63 78 0.0 1.7 0.00 0.00 0.00 86 1009.8
20260506122020 63 76 0.0 2.6 0.00 0.00 0.00 85 1010.1
20260506121028 63 87 0.0 2.6 0.00 0.00 0.00 84 1010.2
20260506120020 64 178 0.9 2.6 0.00 0.00 0.00 81 1010.0
20260506115028 64 117 0.9 3.5 0.00 0.00 0.00 79 1010.0
20260506114019 64 131 0.9 2.6 0.00 0.00 0.00 78 1009.8
20260506113027 65 165 0.9 2.6 0.00 0.00 0.00 78 1009.6
20260506112019 65 117 0.9 4.3 0.00 0.00 0.00 77 1009.4
20260506111029 65 144 1.7 4.3 0.00 0.00 0.00 77 1009.4
20260506110100 64 71 0.9 2.6 0.00 0.00 0.00 78 1009.3
20260506105028 64 143 0.9 4.3 0.00 0.00 0.00 77 1009.4
20260506104100 64 142 0.9 5.2 0.00 0.00 0.00 77 1009.2
20260506103028 64 162 0.9 5.2 0.00 0.00 0.00 77 1009.1
20260506102020 64 116 0.9 7.0 0.00 0.00 0.00 77 1009.2
20260506101047 64 140 0.9 4.3 0.00 0.00 0.00 78 1009.2
20260506100019 64 113 0.9 2.6 0.00 0.00 0.00 78 1009.1
20260506095029 65 117 0.9 2.6 0.00 0.00 0.00 77 1009.2
20260506094021 64 120 0.9 5.2 0.00 0.00 0.00 77 1009.3
20260506093029 64 102 0.9 2.6 0.00 0.00 0.00 77 1009.2
20260506092020 65 138 0.9 8.7 0.00 0.00 0.00 76 1009.2
20260506091028 65 145 0.9 3.5 0.00 0.00 0.00 75 1009.2
20260506090020 65 147 0.9 3.5 0.00 0.00 0.00 75 1009.3